KX4KY-13 Weather Reports


time (UTC)temp
F
wind
direction
speed
knots
gust
knots
rain 1hr
in
rain 24hr
in
rain mn
in
humidity
%
barometer
mb
20260509012016 55 14 0.9 2.6 0.00 0.00 0.00 78 1015.4
20260509011017 55 15 0.9 2.6 0.00 0.00 0.00 76 1015.3
20260509010016 55 18 0.0 2.6 0.00 0.00 0.00 75 1015.4
20260509005017 55 13 0.9 4.3 0.00 0.00 0.00 74 1015.3
20260509004018 55 8 0.9 3.5 0.00 0.00 0.00 74 1015.3
20260509003017 55 27 0.9 2.6 0.00 0.00 0.00 74 1015.3
20260509002016 55 27 0.9 3.5 0.00 0.00 0.00 74 1015.3
20260509001016 56 17 0.0 1.7 0.00 0.00 0.00 74 1015.2
20260509000017 56 4 0.9 1.7 0.00 0.00 0.00 75 1015.2
20260508235037 56 29 0.9 1.7 0.00 0.00 0.00 74 1015.0
20260508234017 57 38 0.9 4.3 0.00 0.00 0.00 73 1015.0
20260508233017 57 31 0.9 6.1 0.00 0.00 0.00 73 1015.3
20260508232017 57 24 0.9 5.2 0.00 0.00 0.00 75 1015.2
20260508231017 58 26 0.9 5.2 0.00 0.00 0.00 74 1015.2
20260508230017 58 40 0.0 3.5 0.00 0.00 0.00 72 1015.1
20260508225018 58 40 0.0 4.3 0.00 0.00 0.00 71 1015.0
20260508224017 59 22 0.9 2.6 0.00 0.00 0.00 71 1015.3
20260508223019 59 30 0.0 1.7 0.00 0.00 0.00 70 1015.3
20260508222039 60 26 0.9 2.6 0.00 0.00 0.00 68 1015.2
20260508221018 60 81 0.0 1.7 0.00 0.00 0.00 68 1015.0
20260508220018 60 84 0.9 3.5 0.00 0.00 0.00 67 1015.0
20260508215020 60 56 0.0 1.7 0.00 0.00 0.00 68 1015.0
20260508214020 61 15 0.9 2.6 0.00 0.00 0.00 65 1015.2
20260508213017 62 42 0.9 2.6 0.00 0.00 0.00 65 1015.1
20260508212016 62 70 0.9 2.6 0.00 0.00 0.00 64 1015.0
20260508211016 61 73 0.9 2.6 0.00 0.00 0.00 63 1015.0
20260508210016 62 51 0.9 2.6 0.00 0.00 0.00 62 1015.0
20260508205017 62 134 0.9 3.5 0.00 0.00 0.00 62 1015.0
20260508204018 61 39 0.9 2.6 0.00 0.00 0.00 61 1014.9
20260508203017 62 88 0.9 3.5 0.00 0.00 0.00 62 1015.3
20260508202017 63 43 0.9 3.5 0.00 0.00 0.00 59 1015.4
20260508201016 63 55 0.9 4.3 0.00 0.00 0.00 59 1015.1
20260508200019 62 133 0.9 4.3 0.00 0.00 0.00 59 1015.0
20260508195017 61 118 0.9 3.5 0.00 0.00 0.00 60 1015.4
20260508194018 60 119 0.9 3.5 0.00 0.00 0.00 60 1015.7
20260508193037 60 120 1.7 3.5 0.00 0.00 0.00 62 1015.9
20260508192038 60 156 0.9 1.7 0.00 0.00 0.00 61 1016.1
20260508191017 60 129 0.9 2.6 0.00 0.00 0.00 62 1016.4
20260508190039 62 135 0.9 4.3 0.00 0.00 0.00 59 1016.3
20260508185018 61 133 0.9 3.5 0.00 0.00 0.00 60 1016.6
20260508184022 62 130 1.7 3.5 0.00 0.00 0.00 60 1016.2
20260508183019 61 131 0.9 2.6 0.00 0.00 0.00 61 1016.8
20260508182039 61 63 0.9 2.6 0.00 0.00 0.00 60 1016.6
20260508181018 61 45 0.9 2.6 0.00 0.00 0.00 59 1017.2
20260508180016 63 132 1.7 5.2 0.00 0.00 0.00 58 1016.7
20260508175016 63 50 0.9 4.3 0.00 0.00 0.00 56 1016.7
20260508174016 62 106 1.7 6.1 0.00 0.00 0.00 59 1016.9
20260508173016 62 123 1.7 4.3 0.00 0.00 0.00 57 1016.9
20260508172016 62 126 1.7 3.5 0.00 0.00 0.00 58 1016.7
20260508171016 61 121 1.7 4.3 0.00 0.00 0.00 60 1017.8
20260508170016 61 134 1.7 3.5 0.00 0.00 0.00 59 1017.2
20260508165037 61 91 0.9 3.5 0.00 0.00 0.00 60 1017.4
20260508164016 61 142 0.9 4.3 0.00 0.00 0.00 60 1018.0
20260508163058 61 138 2.6 6.1 0.00 0.00 0.00 60 1017.6
20260508162017 58 139 1.7 5.2 0.00 0.00 0.00 63 1017.4
20260508161058 57 117 1.7 5.2 0.00 0.00 0.00 65 1017.9
20260508160017 58 27 0.9 2.6 0.00 0.00 0.00 65 1018.6
20260508155019 58 133 1.7 5.2 0.00 0.00 0.00 64 1018.3
20260508154017 58 139 1.7 3.5 0.00 0.00 0.00 64 1018.7
20260508153039 60 132 0.9 6.1 0.00 0.00 0.00 62 1018.2
20260508152018 59 98 0.9 4.3 0.00 0.00 0.00 64 1018.1
20260508151018 59 103 1.7 4.3 0.00 0.00 0.00 62 1017.9
20260508150018 58 1 0.9 3.5 0.00 0.00 0.00 65 1018.4
20260508145019 59 138 0.9 6.1 0.00 0.00 0.00 62 1017.9
20260508144018 57 117 2.6 7.0 0.00 0.00 0.00 64 1017.8
20260508143018 59 153 0.9 4.3 0.00 0.00 0.00 61 1017.8
20260508142015 58 137 0.9 4.3 0.00 0.00 0.00 63 1017.8
20260508141019 58 125 2.6 7.8 0.00 0.00 0.00 64 1017.9
20260508140019 58 129 1.7 3.5 0.00 0.00 0.00 63 1018.0
20260508135016 58 94 1.7 5.2 0.00 0.00 0.00 66 1018.0
20260508134017 58 128 1.7 4.3 0.00 0.00 0.00 63 1017.9
20260508133016 57 103 0.9 3.5 0.00 0.00 0.00 64 1018.3
20260508132016 57 151 1.7 4.3 0.00 0.02 0.00 63 1017.8
20260508131017 57 128 1.7 4.3 0.00 0.03 0.00 65 1017.7
20260508130057 57 124 1.7 5.2 0.00 0.03 0.00 65 1017.6
20260508125016 57 132 1.7 3.5 0.00 0.03 0.00 65 1017.5
20260508124018 56 147 0.9 3.5 0.00 0.04 0.00 64 1017.3
20260508123039 56 138 0.0 3.5 0.00 0.04 0.00 65 1017.1
20260508122018 57 104 0.9 2.6 0.00 0.04 0.00 67 1017.2
20260508121018 56 89 0.9 2.6 0.00 0.04 0.00 67 1017.2
20260508120018 54 53 0.9 3.5 0.00 0.04 0.00 68 1017.1
20260508115018 52 264 0.9 2.6 0.00 0.04 0.00 73 1016.9
20260508114018 50 19 0.9 2.6 0.00 0.04 0.00 78 1016.8
20260508113038 49 11 0.9 1.7 0.00 0.04 0.00 81 1016.9
20260508112018 48 24 0.9 1.7 0.00 0.04 0.00 83 1016.7
20260508111018 48 32 0.9 1.7 0.00 0.05 0.00 84 1016.6
20260508110019 48 15 0.9 1.7 0.00 0.05 0.00 83 1016.4
20260508105019 47 357 0.9 1.7 0.00 0.09 0.00 84 1016.4
20260508104019 46 15 0.9 1.7 0.00 0.09 0.00 85 1016.3
20260508103039 46 12 0.9 1.7 0.00 0.09 0.00 86 1016.2
20260508102019 47 19 0.9 1.7 0.00 0.09 0.00 85 1016.1
20260508101019 47 12 1.7 3.5 0.00 0.09 0.00 86 1015.9
20260508100019 47 8 1.7 2.6 0.00 0.10 0.00 86 1015.7
20260508095019 47 12 0.9 2.6 0.00 0.11 0.00 86 1015.6
20260508094020 47 15 0.9 1.7 0.00 0.13 0.00 86 1015.6
20260508093040 47 9 0.9 2.6 0.00 0.13 0.00 86 1015.5
20260508092020 47 23 0.0 0.9 0.00 0.13 0.00 88 1015.6
20260508091020 47 48 0.9 2.6 0.00 0.13 0.00 87 1015.6
20260508090020 47 42 0.9 1.7 0.00 0.13 0.00 88 1015.5
20260508085021 47 35 0.9 1.7 0.00 0.13 0.00 87 1015.4
20260508084022 48 28 0.9 3.5 0.00 0.13 0.00 87 1015.4
20260508083020 48 37 0.9 1.7 0.00 0.13 0.00 87 1015.2
20260508082020 48 15 0.9 1.7 0.00 0.13 0.00 87 1015.2
20260508081021 48 23 0.9 2.6 0.00 0.13 0.00 88 1015.1
20260508080021 48 91 0.9 2.6 0.00 0.13 0.00 89 1015.0
20260508075021 48 21 0.9 1.7 0.00 0.13 0.00 89 1015.1
20260508074021 48 15 0.9 1.7 0.00 0.13 0.00 89 1015.1
20260508073022 48 46 0.9 2.6 0.00 0.13 0.00 88 1015.0
20260508072022 48 37 0.9 3.5 0.00 0.13 0.00 89 1014.9
20260508071021 48 73 0.9 3.5 0.00 0.14 0.00 89 1014.9
20260508070021 48 12 0.9 1.7 0.00 0.14 0.00 88 1015.0
20260508065043 49 56 0.0 2.6 0.00 0.14 0.00 88 1014.7
20260508064022 49 36 0.9 1.7 0.00 0.14 0.00 88 1014.7
20260508063022 49 84 0.9 3.5 0.00 0.14 0.00 88 1014.7
20260508062022 49 28 0.9 3.5 0.00 0.16 0.00 87 1014.7
20260508061022 49 14 0.9 1.7 0.00 0.16 0.00 87 1014.7
20260508060023 49 18 0.9 2.6 0.00 0.17 0.00 86 1014.8
20260508055119 49 75 0.9 3.5 0.00 0.17 0.00 84 1014.9
20260508054043 49 36 0.9 1.7 0.00 0.19 0.00 84 1014.8
20260508053023 49 325 0.9 3.5 0.00 0.20 0.00 84 1014.9
20260508052023 49 152 0.9 3.5 0.00 0.20 0.00 83 1014.9
20260508051043 50 22 0.9 2.6 0.00 0.21 0.00 82 1014.9
20260508050020 50 39 0.9 5.2 0.00 0.22 0.00 83 1014.7
20260508045023 50 33 0.9 3.5 0.00 0.22 0.00 83 1014.7
20260508044020 50 45 0.9 4.3 0.00 0.22 0.00 83 1014.7
20260508043026 50 28 1.7 3.5 0.00 0.22 0.00 84 1014.6
20260508042023 50 57 0.9 2.6 0.00 0.22 0.00 83 1014.6
20260508041104 50 121 1.7 3.5 0.00 0.22 0.00 82 1014.5
20260508040024 50 87 1.7 4.3 0.00 0.22 0.00 83 1014.4
20260508035024 50 60 1.7 4.3 0.00 0.22 0.22 84 1014.5
20260508034044 50 80 1.7 2.6 0.00 0.22 0.22 83 1014.6
20260508033024 50 48 1.7 4.3 0.00 0.22 0.22 82 1014.6
20260508032045 50 43 1.7 3.5 0.00 0.22 0.22 82 1014.6
20260508031025 51 35 1.7 3.5 0.00 0.22 0.22 82 1014.4
20260508030024 51 53 1.7 4.3 0.00 0.22 0.22 81 1014.2
20260508025023 51 68 1.7 5.2 0.00 0.22 0.22 82 1014.4
20260508024021 51 52 1.7 7.0 0.00 0.22 0.22 81 1014.2
20260508023025 51 80 1.7 4.3 0.00 0.22 0.22 78 1014.4
20260508022044 51 57 0.9 1.7 0.00 0.22 0.22 79 1014.5
20260508021025 51 11 0.9 2.6 0.00 0.23 0.22 80 1014.2
20260508020040 51 50 1.7 3.5 0.00 0.23 0.22 79 1014.1
20260508015045 51 28 0.9 2.6 0.00 0.24 0.22 80 1014.0
20260508014036 51 33 0.9 3.5 0.00 0.24 0.22 80 1013.7
20260508013017 51 11 1.7 4.3 0.00 0.24 0.22 79 1013.6